Location: Ripley
(48.3812°N, 115.4473°W)
Time: 23:00:42
(UTC+00:00)

CAS-6 - Pass Details

Date: 04 July 2022
Orbit: 613 x 635 km, 97.9° (Epoch: 07 August)

Event Time Altitude Azimuth Distance (km) Brightness Sun altitude
Exits shadow 06:22:41 22° 200° (SSW) 1,368 ? -16.3°
Maximum altitude 06:25:07 44° 261° (W) 868 ? -16.5°
Drops below altitude 10° 06:29:17 10° 334° (NNW) 2,000 ? -16.7°
Sets 06:31:34 0° 341° (NNW) 2,907 ? -16.8°
